Previsão horária em Barmer

Hoje, 26 Julho, Segunda-feira

Tempo Temperatura Precipitação Vento Pressão Humidade
00:00 +33°C° 0.4 mm 9 m/s 729 mmHg 71%
01:00 +32°C° 0.4 mm 9 m/s 729 mmHg 72%
02:00 +32°C° 0.4 mm 9 m/s 728 mmHg 72%
03:00 +32°C° 0.6 mm 8 m/s 729 mmHg 74%
04:00 +30°C° 0.6 mm 7 m/s 729 mmHg 75%
05:00 +30°C° 0.6 mm 6 m/s 729 mmHg 76%
06:00 +30°C° 0.3 mm 6 m/s 729 mmHg 75%
07:00 +30°C° 0.3 mm 6 m/s 730 mmHg 74%
08:00 +30°C° 0.3 mm 6 m/s 730 mmHg 73%
09:00 +32°C° 0.1 mm 7 m/s 730 mmHg 69%
10:00 +33°C° 0.1 mm 8 m/s 730 mmHg 66%
11:00 +34°C° 0.1 mm 9 m/s 730 mmHg 62%
12:00 +35°C° 0 mm 9 m/s 730 mmHg 59%
13:00 +35°C° 0 mm 8 m/s 729 mmHg 56%
14:00 +37°C° 0 mm 8 m/s 729 mmHg 54%
15:00 +37°C° 0 mm 8 m/s 729 mmHg 53%
16:00 +37°C° 0 mm 8 m/s 729 mmHg 52%
17:00 +37°C° 0 mm 8 m/s 728 mmHg 51%
18:00 +35°C° 0 mm 8 m/s 729 mmHg 54%
19:00 +34°C° 0 mm 8 m/s 729 mmHg 58%
20:00 +34°C° 0 mm 8 m/s 729 mmHg 61%
21:00 +33°C° 0 mm 8 m/s 729 mmHg 66%
22:00 +32°C° 0 mm 8 m/s 729 mmHg 72%
23:00 +31°C° 0 mm 8 m/s 730 mmHg 77%

Amanhã, 27 Julho, Terça-feira

Tempo Temperatura Precipitação Vento Pressão Humidade
00:00 +31°C° 0 mm 8 m/s 729 mmHg 78%
01:00 +31°C° 0 mm 8 m/s 729 mmHg 79%
02:00 +29°C° 0 mm 8 m/s 728 mmHg 80%
03:00 +29°C° 0 mm 8 m/s 728 mmHg 80%
04:00 +29°C° 0 mm 8 m/s 728 mmHg 81%
05:00 +29°C° 0 mm 8 m/s 728 mmHg 81%
06:00 +29°C° 0 mm 8 m/s 728 mmHg 80%
07:00 +29°C° 0 mm 8 m/s 729 mmHg 78%
08:00 +29°C° 0 mm 8 m/s 729 mmHg 77%
09:00 +32°C° 0 mm 8 m/s 729 mmHg 72%
10:00 +33°C° 0 mm 9 m/s 729 mmHg 67%
11:00 +34°C° 0 mm 9 m/s 729 mmHg 61%
12:00 +34°C° 0 mm 9 m/s 728 mmHg 59%
13:00 +35°C° 0 mm 9 m/s 728 mmHg 57%
14:00 +37°C° 0 mm 9 m/s 728 mmHg 55%
15:00 +35°C° 0 mm 9 m/s 727 mmHg 56%
16:00 +35°C° 0 mm 8 m/s 727 mmHg 56%
17:00 +35°C° 0 mm 8 m/s 727 mmHg 57%
18:00 +35°C° 0 mm 8 m/s 727 mmHg 60%
19:00 +34°C° 0 mm 8 m/s 727 mmHg 63%
20:00 +33°C° 0 mm 8 m/s 727 mmHg 65%
21:00 +33°C° 0 mm 8 m/s 728 mmHg 69%
22:00 +32°C° 0 mm 8 m/s 728 mmHg 72%
23:00 +31°C° 0 mm 9 m/s 728 mmHg 75%

Depois de amanhã, 28 Julho, Quarta-feira

Tempo Temperatura Precipitação Vento Pressão Humidade
00:00 +31°C° 0 mm 8 m/s 728 mmHg 77%
01:00 +31°C° 0 mm 8 m/s 728 mmHg 78%
02:00 +29°C° 0 mm 8 m/s 727 mmHg 80%
03:00 +29°C° 0 mm 8 m/s 727 mmHg 81%
04:00 +29°C° 0 mm 8 m/s 727 mmHg 82%
05:00 +29°C° 0 mm 8 m/s 727 mmHg 83%
06:00 +29°C° 0 mm 8 m/s 727 mmHg 80%
07:00 +31°C° 0 mm 8 m/s 728 mmHg 78%
08:00 +31°C° 0 mm 9 m/s 728 mmHg 75%
09:00 +32°C° 0 mm 9 m/s 728 mmHg 71%
10:00 +33°C° 0 mm 9 m/s 729 mmHg 67%
11:00 +34°C° 0 mm 10 m/s 729 mmHg 63%
12:00 +36°C° 0 mm 10 m/s 728 mmHg 60%
13:00 +36°C° 0 mm 11 m/s 728 mmHg 56%
14:00 +37°C° 0 mm 11 m/s 727 mmHg 53%
15:00 +37°C° 0 mm 11 m/s 727 mmHg 53%
16:00 +37°C° 0 mm 10 m/s 727 mmHg 53%
17:00 +37°C° 0 mm 10 m/s 727 mmHg 53%
18:00 +36°C° 0 mm 10 m/s 727 mmHg 58%
19:00 +34°C° 0 mm 9 m/s 727 mmHg 63%
20:00 +33°C° 0 mm 9 m/s 728 mmHg 68%
21:00 +32°C° 0 mm 9 m/s 728 mmHg 71%
22:00 +32°C° 0 mm 9 m/s 728 mmHg 74%
23:00 +31°C° 0 mm 9 m/s 728 mmHg 77%

29 Julho, Quinta-feira

Tempo Temperatura Precipitação Vento Pressão Humidade
00:00 +31°C° 0 mm 9 m/s 728 mmHg 78%
01:00 +29°C° 0 mm 9 m/s 728 mmHg 80%
02:00 +29°C° 0 mm 8 m/s 727 mmHg 81%
03:00 +29°C° 0 mm 8 m/s 727 mmHg 81%
04:00 +29°C° 0 mm 8 m/s 727 mmHg 82%
05:00 +29°C° 0 mm 8 m/s 727 mmHg 82%
06:00 +29°C° 0 mm 8 m/s 727 mmHg 81%
07:00 +31°C° 0 mm 8 m/s 728 mmHg 79%
08:00 +31°C° 0 mm 9 m/s 728 mmHg 77%
09:00 +32°C° 0 mm 9 m/s 728 mmHg 72%
10:00 +33°C° 0 mm 9 m/s 728 mmHg 68%
11:00 +34°C° 0 mm 10 m/s 728 mmHg 63%
12:00 +34°C° 0 mm 9 m/s 728 mmHg 62%
13:00 +35°C° 0 mm 9 m/s 728 mmHg 60%
14:00 +35°C° 0 mm 9 m/s 727 mmHg 59%
15:00 +35°C° 0 mm 9 m/s 727 mmHg 59%
16:00 +35°C° 0 mm 9 m/s 727 mmHg 59%
17:00 +35°C° 0 mm 8 m/s 727 mmHg 59%
18:00 +34°C° 0 mm 8 m/s 728 mmHg 63%
19:00 +34°C° 0 mm 8 m/s 728 mmHg 66%
20:00 +33°C° 0 mm 8 m/s 728 mmHg 69%
21:00 +32°C° 0 mm 8 m/s 728 mmHg 72%
22:00 +32°C° 0 mm 7 m/s 729 mmHg 75%
23:00 +30°C° 0 mm 7 m/s 729 mmHg 78%

30 Julho, Sexta-feira

Tempo Temperatura Precipitação Vento Pressão Humidade
00:00 +30°C° 0 mm 7 m/s 729 mmHg 79%
01:00 +30°C° 0 mm 7 m/s 728 mmHg 79%
02:00 +29°C° 0 mm 7 m/s 728 mmHg 80%
03:00 +29°C° 0 mm 7 m/s 728 mmHg 81%
04:00 +29°C° 0 mm 6 m/s 728 mmHg 82%
05:00 +29°C° 0 mm 5 m/s 728 mmHg 83%
06:00 +29°C° 0 mm 6 m/s 729 mmHg 80%
07:00 +30°C° 0 mm 6 m/s 729 mmHg 78%
08:00 +30°C° 0 mm 6 m/s 730 mmHg 75%
09:00 +32°C° 0 mm 6 m/s 730 mmHg 70%
10:00 +33°C° 0 mm 6 m/s 730 mmHg 64%
11:00 +35°C° 0 mm 6 m/s 730 mmHg 59%
12:00 +35°C° 0 mm 6 m/s 729 mmHg 57%
13:00 +36°C° 0 mm 6 m/s 729 mmHg 54%
14:00 +38°C° 0 mm 6 m/s 729 mmHg 52%
15:00 +37°C° 0 mm 5 m/s 729 mmHg 51%
16:00 +37°C° 0 mm 5 m/s 728 mmHg 51%
17:00 +37°C° 0 mm 5 m/s 728 mmHg 50%
18:00 +36°C° 0 mm 6 m/s 729 mmHg 54%
19:00 +36°C° 0 mm 6 m/s 729 mmHg 58%
20:00 +35°C° 0 mm 7 m/s 729 mmHg 62%
21:00 +34°C° 0 mm 8 m/s 729 mmHg 66%
22:00 +33°C° 0 mm 8 m/s 730 mmHg 71%
23:00 +32°C° 0 mm 8 m/s 730 mmHg 75%

31 Julho, Sábado

Tempo Temperatura Precipitação Vento Pressão Humidade
00:00 +32°C° 0 mm 8 m/s 730 mmHg 75%
01:00 +30°C° 0 mm 7 m/s 729 mmHg 76%
02:00 +30°C° 0 mm 7 m/s 729 mmHg 76%
03:00 +30°C° 0 mm 7 m/s 729 mmHg 77%
04:00 +30°C° 0 mm 7 m/s 729 mmHg 78%
05:00 +29°C° 0 mm 7 m/s 729 mmHg 78%
06:00 +30°C° 0 mm 6 m/s 729 mmHg 76%
07:00 +30°C° 0 mm 6 m/s 730 mmHg 74%
08:00 +30°C° 0 mm 6 m/s 730 mmHg 72%
09:00 +32°C° 0 mm 6 m/s 730 mmHg 67%
10:00 +34°C° 0 mm 6 m/s 730 mmHg 62%
11:00 +35°C° 0 mm 6 m/s 730 mmHg 57%
12:00 +36°C° 0 mm 6 m/s 730 mmHg 53%
13:00 +38°C° 0 mm 6 m/s 729 mmHg 48%
14:00 +39°C° 0 mm 6 m/s 729 mmHg 44%
15:00 +39°C° 0 mm 6 m/s 728 mmHg 45%
16:00 +39°C° 0 mm 6 m/s 728 mmHg 45%
17:00 +39°C° 0 mm 6 m/s 728 mmHg 46%
18:00 +38°C° 0 mm 6 m/s 728 mmHg 49%
19:00 +38°C° 0 mm 7 m/s 728 mmHg 52%
20:00 +36°C° 0 mm 7 m/s 729 mmHg 55%
21:00 +35°C° 0 mm 7 m/s 729 mmHg 60%
22:00 +34°C° 0 mm 8 m/s 729 mmHg 66%
23:00 +33°C° 0 mm 8 m/s 730 mmHg 71%
Mostrar mais